星链-35656(STARLINK-35656)

导读

STARLINK-35656是美国SpaceX公司于2025年11月8日发射的星链第二代卫星,属于星链低轨卫星互联网星座的组成部分。该星作为第二代卫星搭载了高速激光通信终端,具备全自动星间链路能力,为构建全球无缝覆盖的太空互联网组网贡献节点,将为全球偏远、海洋等区域提供高速低时延的宽带互联网接入服务,服役期满后会受控离轨在大气层完全焚毁。

基本信息
目录编号:
66391
目录名称:
STARLINK-35656
国际标识:
2025-257M
轨道中心:
EARTH
卫星名称:
星链-35656
卫星全名:
星链-35656(STARLINK-35656)
卫星状态:
在轨 (已飞行300 天)
发射日期:
2025-11-08 UTC
国别 :
美国 (US)
星等 :
--
轨道信息
数据来源 国际轨道数据
星历时间: 2026-09-04T08:59:59+0800
15小时前
查看轨道信息
半长轴: 6840.843km
偏心率: 0.0001303
轨道倾角: 53.159°
近地点辐角 66.454°
升交点赤经 110.461°
平近点角 293.660°
近地点: 461.814km
远地点: 463.598km
周期: 93.848分钟
每日圈数: 15.343993
详细信息
固有亮度:
5
最大亮度:
2.5
卫星平台:
Starlink V1.0
覆盖范围:
全球
运营商:
太空探索技术公司
运营商所在国:
美国
制造商(研发单位):
太空探索技术公司
制造商所在国:
美国
使用方式:
暂无
卫星简介
Starlink 计划是 SpaceX 推出的全球卫星互联网项目,通过发射低轨道卫星,为全球尤其是偏远地区提供高速、低延迟的互联网服务。自 2019 年起,Starlink 已部署数千颗卫星,旨在缩小全球数字鸿沟,推动互联网普及。该项目还为军事、航空等行业提供通信支持,带来广泛经济效益。
2D轨道图
3D轨道图
轨道高度分析图
轨道倾角分析图
轨道综合分析图
查看轨道综合分析图
交会数据列表
事件ID 空间交会对象 最接近时刻(TCA) 交会距离 交会风险概率(CRP) 交会风险指数(CRI) 操作
CDM_260905-112806-436606-639121
2026-09-05T
11:28:14+0000
2.473 km
极远距离
1.68043E-6 低风险 0.4
CDM_260903-093005-246906-639121
2026-09-03T
09:30:10+0000
2.628 km
极远距离
1.3898E-6 低风险 0.38
CDM_260903-080505-256006-639122
2026-09-03T
08:05:09+0000
2.510 km
极远距离
1.16841E-6 低风险 0.36